Tracking 27107 objects as of 20-Mar-2023
HD Live streaming from Space Station
objects crossing your sky now

RESURS O1 DEB

Track RESURS O1 DEB now!
10-day predictions


NORAD ID: 48495
Int'l Code: 1994-074DW
Perigee: 500.1 km
Apogee: 508.5 km
Inclination: 97.9 °
Period: 94.6 minutes
Semi major axis: 6875 km
RCS: Unknown
Launch date: November 4, 1994
Source: Commonwealth of Independent States (former USSR) (CIS)
Launch site: TYURATAM MISSILE AND SPACE COMPLEX (TTMTR)

Note: This is SATELLITE DEBRIS
Your satellite tracking list
Your tracking list is empty




NASA's NSSDC Master Catalog

Two Line Element Set (TLE):
1 48495U 94074DW  23077.61462076  .00292314  00000-0  12000-1 0  9990
2 48495  97.8787 138.6127 0006084 233.7648 126.3026 15.22876229110766
Source of the keplerian elements: AFSPC